This is the latest recevied weather packets stored in our database for station/object OE-11179. If no packets are shown the sender has not sent any weather packets the latest 10 day(s).
| Time | Temp. | Humidity | Pressure | Rain* | Wind** | Luminosity | Snow |
|---|---|---|---|---|---|---|---|
| 1788024332 | 17.78° C | 74% | - | 0 mm | - | - | - |
| 1788023505 | 18.33° C | 72% | - | 0 mm | - | - | - |
| 1788023131 | 18.33° C | 65% | - | 0 mm | - | - | - |
| 1788022532 | 18.89° C | 62% | - | 0 mm | - | - | - |
| 1788021705 | 18.89° C | 62% | - | 0 mm | - | - | - |
| 1788021332 | 18.89° C | 62% | - | 0 mm | - | - | - |
| 1788020731 | 18.89° C | 61% | - | 0 mm | - | - | - |
| 1788019905 | 19.44° C | 60% | - | 0 mm | - | - | - |
| 1788019532 | 18.89° C | 58% | - | 0 mm | - | - | - |
| 1788018931 | 18.89° C | 61% | - | 0 mm | - | - | - |
| 1788018105 | 18.89° C | 62% | - | 0 mm | - | - | - |
| 1788017732 | 19.44° C | 62% | - | 0 mm | - | - | - |
| 1788017132 | 19.44° C | 58% | - | 0 mm | - | - | - |
| 1788016305 | 19.44° C | 61% | - | 0 mm | - | - | - |
| 1788015932 | 20° C | 61% | - | 0 mm | - | - | - |
| 1788015332 | 20° C | 60% | - | 0 mm | - | - | - |
| 1788014505 | 20° C | 59% | - | 0 mm | - | - | - |
| 1788014132 | 20° C | 62% | - | 0 mm | - | - | - |
| 1788013531 | 19.44° C | 62% | - | 0 mm | - | - | - |
| 1788012705 | 20° C | 56% | - | 0 mm | - | - | - |
| 1788012332 | 20° C | 61% | - | 0 mm | - | - | - |
| 1788011732 | 20° C | 60% | - | 0 mm | - | - | - |
| 1788010905 | 20° C | 62% | - | 0 mm | - | - | - |
| 1788010532 | 19.44° C | 65% | - | 0 mm | - | - | - |
| 1788009931 | 20° C | 63% | - | 0 mm | - | - | - |
* Rain latest hour (hover to see other rain measurements)
** Current wind speed in m/s (hover to see current wind gust speed)